Miscellaneous Local Product
Issued by NWS Hastings, NE

Home | Current Version | Previous Version | Graphics & Text | Print | Product List | Glossary On
Versions: 1 2 3 4 5 6 7 8 9 10 11 12 13 14 15 16 17 18 19 20 21 22 23 24 25 26 27 28 29 30 31 32 33 34 35 36 37 38 39 40 41 42 43 44 45 46 47 48 49 50
554
AXUS43 KGID 061502
MISGRI

GID CWA HOURLY WEATHER ROUNDUP
NATIONAL WEATHER SERVICE HASTINGS NE
900 AM CST SAT FEB 06 2016

NOTE: "FAIR" INDICATES FEW OR NO CLOUDS BELOW 12,000 FEET WITH NO
SIGNIFICANT WEATHER AND/OR OBSTRUCTIONS TO VISIBILITY.

...SOUTH CENTRAL NEBRASKA...

CITY           SKY/WX    TMP DP  RH WIND       PRES   REMARKS
GRAND ISLAND   CLOUDY    21  15  78 SW12      30.20F WCI   9
HASTINGS       CLOUDY    18  12  77 SW8       30.21F WCI   8
ORD            CLOUDY    19  15  84 CALM      30.15F
YORK           CLOUDY    18  18 100 SW10      30.23S WCI   6
AURORA         CLOUDY    21  20  97 SW12      30.21F WCI   9
LEXINGTON      CLOUDY   N/A N/A N/A W3        30.20S
HOLDREGE       CLOUDY    19  12  76 SW6       30.21F WCI  10
HEBRON         CLOUDY    20  19  95 W6        30.28S WCI  13

...NEBRASKA PANHANDLE...

CITY           SKY/WX    TMP DP  RH WIND       PRES   REMARKS
CHADRON        CLOUDY    24  17  74 SW10      30.12F WCI  14
ALLIANCE       CLOUDY    24  17  74 W17       30.11S WCI  11
SCOTTSBLUFF    CLOUDY    27  17  66 CALM      30.16S
SIDNEY         CLOUDY    25  15  66 W18       30.16F WCI  11

...WESTERN AND NORTH CENTRAL NEBRASKA...

CITY           SKY/WX    TMP DP  RH WIND       PRES   REMARKS
VALENTINE      CLOUDY    27  19  72 W13       30.07S WCI  16
AINSWORTH      CLOUDY    29  19  68 SW14      30.07F WCI  18
ONEILL         CLOUDY    23  17  78 SW9       30.11R WCI  13
BROKEN BOW     CLOUDY    19  13  77 CALM      30.15S
IMPERIAL         N/A     18   8  65 W13       30.20R WCI   5
NORTH PLATTE   SUNNY     16   9  74 NW5       30.18S WCI   9
MCCOOK         CLOUDY    16   9  74 W10       30.23F WCI   4

...EASTERN NEBRASKA...

CITY           SKY/WX    TMP DP  RH WIND       PRES   REMARKS
NORFOLK        CLOUDY    21  16  81 SW3       30.15F
SO SIOUX CITY  CLOUDY    18  13  80 SE9       30.17F WCI   7
TEKAMAH        CLOUDY    16  13  88 S7        30.22F WCI   6
COLUMBUS       CLOUDY    23  16  74 SW6       30.20F WCI  16
ALBION         CLOUDY    24  19  83 SW5       30.16F WCI  18
OMAHA EPPLEY   FOG       22  22 100 SE8       30.24F VSB 1/2 WCI  12
OFFUTT AFB     SUNNY     19  18  93 S5        30.24F FOG     WCI  13
MILLARD        FOG       20  18  92 CALM      30.25F VSB 1/4
LINCOLN        CLOUDY    20  18  92 S5        30.27F WCI  13
NEBRASKA CITY  SUNNY     27  27 100 W8        30.26F WCI  19
BEATRICE       SUNNY     24  23  96 SW3       30.27F
FALLS CITY     SUNNY     32  29  88 SW5       30.29R WCI  27

...NORTHERN KANSAS...

CITY           SKY/WX    TMP DP  RH WIND       PRES   REMARKS
GOODLAND       CLOUDY    22  10  60 SW13      30.22F WCI  10
HILL CITY      CLOUDY    19  10  68 W8        30.28F WCI   9
NORTON         SUNNY     16   7  67 SW9       30.24S WCI   4
PHILLIPSBURG   SUNNY     18  12  79 CALM      30.28F
BELOIT         SUNNY     25  19  80 W8        30.31S WCI  16
HAYS           CLOUDY    21   7  53 W10       30.31R WCI  10
RUSSELL        SUNNY     20  16  84 W7        30.30R WCI  11
CONCORDIA      SUNNY     26  22  84 W7        30.30R WCI  18
SALINA         SUNNY     30  24  78 CALM      30.33S
TOPEKA         SUNNY     31  27  85 W3        30.32R



USA.gov is the U.S. government's official web portal to all federal, state and local government web resources and services.